Voltar ao catálogo

CZ-6A DEB

AtivoSSO
NORAD 56278·DEBRIS·🇨🇳 China

Lançado Nov 11, 2022 de Taiyuan Satellite Launch Center

Loading…

Próximas Passagens (próximas 24 horas)

TLE

AtualizadoSource: Space-Track

Época: Sep 13, 2026, 09:49 UTC

1 56278U 22151ACW 26256.40961338  .00000061  00000-0  73885-4 0  9996
2 56278  98.9620 229.9841 0117098 195.6188 164.1349 13.94335783177361

Acompanhe CZ-6A DEB em tempo real com AllMySat

Download on the App Store